Terminal Aerodrome Forecast
Issued by NWS Denver/Boulder, CO

Home | Current Version | Previous Version | Text Only | Print | Product List | Glossary On
Versions: 1 2 3 4 5 6 7 8 9 10 11 12 13 14 15 16 17 18 19 20 21 22 23 24 25 26 27 28 29 30 31 32 33 34 35 36 37 38 39 40
000
FTUS45 KBOU 180540
TAFDEN
TAF
KDEN 180540Z 1806/1912 23010KT P6SM SCT220
     FM181700 07006KT P6SM FEW220
     FM182300 12008KT P6SM FEW220
     FM190100 17012KT P6SM SCT220=

USA.gov is the U.S. government's official web portal to all federal, state and local government web resources and services.